• In Hungary
  • List of Countries
  • For 7 days
  • Water Temperature
  • Satellite Maps
  • Weather Map
  • News
  • Weather Widgets
  • user-avatar
    Login

    Hourly Weather Kota

    Today, 20 November, Monday

    Time Temperature Precipitation Wind Pressure Humidity
    00:00 +21°C° 0 mm 2 mps 739 mmHg 42%
    01:00 +21°C° 0 mm 2 mps 739 mmHg 42%
    02:00 +20°C° 0 mm 2 mps 739 mmHg 42%
    03:00 +20°C° 0 mm 2 mps 739 mmHg 42%
    04:00 +19°C° 0 mm 2 mps 739 mmHg 42%
    05:00 +19°C° 0 mm 2 mps 739 mmHg 41%
    06:00 +19°C° 0 mm 2 mps 739 mmHg 39%
    07:00 +20°C° 0 mm 2 mps 740 mmHg 37%
    08:00 +21°C° 0 mm 3 mps 740 mmHg 34%
    09:00 +24°C° 0 mm 3 mps 740 mmHg 31%
    10:00 +25°C° 0 mm 3 mps 740 mmHg 28%
    11:00 +27°C° 0 mm 3 mps 740 mmHg 24%
    12:00 +28°C° 0 mm 3 mps 740 mmHg 23%
    13:00 +28°C° 0 mm 3 mps 739 mmHg 23%
    14:00 +29°C° 0 mm 2 mps 738 mmHg 23%
    15:00 +28°C° 0 mm 2 mps 738 mmHg 25%
    16:00 +27°C° 0 mm 2 mps 738 mmHg 27%
    17:00 +25°C° 0 mm 2 mps 738 mmHg 28%
    18:00 +24°C° 0 mm 2 mps 738 mmHg 28%
    19:00 +24°C° 0 mm 2 mps 739 mmHg 29%
    20:00 +23°C° 0 mm 2 mps 739 mmHg 29%
    21:00 +23°C° 0 mm 2 mps 739 mmHg 29%
    22:00 +21°C° 0 mm 2 mps 739 mmHg 29%
    23:00 +21°C° 0 mm 2 mps 739 mmHg 29%

    Tomorrow, 21 November, Tuesday

    Time Temperature Precipitation Wind Pressure Humidity
    00:00 +20°C° 0 mm 2 mps 739 mmHg 29%
    01:00 +19°C° 0 mm 2 mps 738 mmHg 28%
    02:00 +19°C° 0 mm 2 mps 738 mmHg 27%
    03:00 +18°C° 0 mm 2 mps 738 mmHg 27%
    04:00 +18°C° 0 mm 2 mps 738 mmHg 26%
    05:00 +17°C° 0 mm 2 mps 738 mmHg 26%
    06:00 +18°C° 0 mm 2 mps 738 mmHg 25%
    07:00 +19°C° 0 mm 2 mps 739 mmHg 25%
    08:00 +19°C° 0 mm 2 mps 739 mmHg 24%
    09:00 +21°C° 0 mm 2 mps 739 mmHg 22%
    10:00 +24°C° 0 mm 2 mps 739 mmHg 20%
    11:00 +26°C° 0 mm 2 mps 739 mmHg 18%
    12:00 +27°C° 0 mm 2 mps 739 mmHg 18%
    13:00 +28°C° 0 mm 2 mps 738 mmHg 18%
    14:00 +28°C° 0 mm 1 mps 737 mmHg 19%
    15:00 +27°C° 0 mm 1 mps 737 mmHg 21%
    16:00 +26°C° 0 mm 1 mps 737 mmHg 23%
    17:00 +25°C° 0 mm 1 mps 737 mmHg 24%
    18:00 +25°C° 0 mm 2 mps 737 mmHg 24%
    19:00 +24°C° 0 mm 2 mps 738 mmHg 23%
    20:00 +23°C° 0 mm 2 mps 738 mmHg 23%
    21:00 +21°C° 0 mm 2 mps 738 mmHg 22%
    22:00 +21°C° 0 mm 2 mps 738 mmHg 22%
    23:00 +20°C° 0 mm 2 mps 738 mmHg 21%

    Day after tomorrow, 22 November, Wednesday

    Time Temperature Precipitation Wind Pressure Humidity
    00:00 +20°C° 0 mm 2 mps 738 mmHg 21%
    01:00 +19°C° 0 mm 2 mps 737 mmHg 21%
    02:00 +20°C° 0 mm 1 mps 737 mmHg 21%
    03:00 +19°C° 0 mm 1 mps 737 mmHg 21%
    04:00 +19°C° 0 mm 1 mps 737 mmHg 21%
    05:00 +18°C° 0 mm 1 mps 737 mmHg 21%
    06:00 +19°C° 0 mm 1 mps 737 mmHg 21%
    07:00 +20°C° 0 mm 1 mps 738 mmHg 20%
    08:00 +21°C° 0 mm 1 mps 739 mmHg 20%
    09:00 +23°C° 0 mm 1 mps 739 mmHg 18%
    10:00 +25°C° 0 mm 1 mps 739 mmHg 16%
    11:00 +26°C° 0 mm 2 mps 739 mmHg 15%
    12:00 +27°C° 0 mm 2 mps 738 mmHg 15%
    13:00 +28°C° 0 mm 2 mps 737 mmHg 15%
    14:00 +29°C° 0 mm 2 mps 736 mmHg 16%
    15:00 +28°C° 0 mm 2 mps 736 mmHg 17%
    16:00 +27°C° 0 mm 2 mps 736 mmHg 19%
    17:00 +25°C° 0 mm 2 mps 736 mmHg 21%
    18:00 +24°C° 0 mm 1 mps 736 mmHg 21%
    19:00 +24°C° 0 mm 1 mps 737 mmHg 20%
    20:00 +23°C° 0 mm 1 mps 737 mmHg 20%
    21:00 +22°C° 0 mm 1 mps 737 mmHg 20%
    22:00 +22°C° 0 mm 1 mps 737 mmHg 20%
    23:00 +21°C° 0 mm 1 mps 737 mmHg 19%

    23 November, Thursday

    Time Temperature Precipitation Wind Pressure Humidity
    00:00 +21°C° 0 mm 1 mps 737 mmHg 19%
    01:00 +20°C° 0 mm 1 mps 737 mmHg 19%
    02:00 +19°C° 0 mm 2 mps 736 mmHg 18%
    03:00 +18°C° 0 mm 2 mps 736 mmHg 18%
    04:00 +19°C° 0 mm 1 mps 736 mmHg 18%
    05:00 +18°C° 0 mm 1 mps 736 mmHg 18%
    06:00 +19°C° 0 mm 1 mps 737 mmHg 18%
    07:00 +20°C° 0 mm 1 mps 737 mmHg 18%
    08:00 +19°C° 0 mm 0 mps 738 mmHg 18%
    09:00 +23°C° 0 mm 1 mps 738 mmHg 16%
    10:00 +25°C° 0 mm 1 mps 738 mmHg 15%
    11:00 +27°C° 0 mm 1 mps 738 mmHg 13%
    12:00 +28°C° 0 mm 1 mps 737 mmHg 13%
    13:00 +28°C° 0 mm 1 mps 737 mmHg 13%
    14:00 +29°C° 0 mm 1 mps 736 mmHg 13%
    15:00 +28°C° 0 mm 1 mps 736 mmHg 15%
    16:00 +27°C° 0 mm 1 mps 736 mmHg 17%
    17:00 +26°C° 0 mm 1 mps 736 mmHg 19%
    18:00 +25°C° 0 mm 1 mps 736 mmHg 19%
    19:00 +24°C° 0 mm 2 mps 737 mmHg 18%
    20:00 +23°C° 0 mm 2 mps 737 mmHg 18%
    21:00 +23°C° 0 mm 1 mps 737 mmHg 18%
    22:00 +22°C° 0 mm 1 mps 737 mmHg 18%
    23:00 +21°C° 0 mm 1 mps 737 mmHg 19%

    24 November, Friday

    Time Temperature Precipitation Wind Pressure Humidity
    00:00 +21°C° 0 mm 1 mps 737 mmHg 19%
    01:00 +19°C° 0 mm 0 mps 737 mmHg 19%
    02:00 +18°C° 0 mm 0 mps 736 mmHg 19%
    03:00 +18°C° 0 mm 0 mps 736 mmHg 20%
    04:00 +18°C° 0 mm 0 mps 736 mmHg 20%
    05:00 +17°C° 0 mm 0 mps 737 mmHg 20%
    06:00 +18°C° 0 mm 0 mps 737 mmHg 20%
    07:00 +19°C° 0 mm 0 mps 738 mmHg 19%
    08:00 +20°C° 0 mm 0 mps 739 mmHg 19%
    09:00 +22°C° 0 mm 0 mps 739 mmHg 17%
    10:00 +24°C° 0 mm 0 mps 739 mmHg 15%
    11:00 +28°C° 0 mm 1 mps 739 mmHg 13%
    12:00 +29°C° 0 mm 1 mps 738 mmHg 13%
    13:00 +29°C° 0 mm 1 mps 737 mmHg 13%
    14:00 +30°C° 0 mm 1 mps 737 mmHg 13%
    15:00 +29°C° 0 mm 1 mps 737 mmHg 15%
    16:00 +28°C° 0 mm 1 mps 737 mmHg 16%
    17:00 +27°C° 0 mm 1 mps 737 mmHg 18%
    18:00 +26°C° 0 mm 1 mps 737 mmHg 17%
    19:00 +25°C° 0 mm 1 mps 738 mmHg 17%
    20:00 +24°C° 0 mm 1 mps 738 mmHg 17%
    21:00 +23°C° 0 mm 1 mps 738 mmHg 17%
    22:00 +23°C° 0 mm 1 mps 738 mmHg 17%
    23:00 +22°C° 0 mm 1 mps 738 mmHg 17%

    25 November, Saturday

    Time Temperature Precipitation Wind Pressure Humidity
    00:00 +22°C° 0 mm 1 mps 738 mmHg 17%
    01:00 +19°C° 0 mm 0 mps 737 mmHg 17%
    02:00 +19°C° 0 mm 0 mps 737 mmHg 18%
    03:00 +18°C° 0 mm 0 mps 737 mmHg 18%
    04:00 +18°C° 0 mm 0 mps 737 mmHg 18%
    05:00 +18°C° 0 mm 0 mps 737 mmHg 19%
    06:00 +19°C° 0 mm 0 mps 738 mmHg 18%
    07:00 +20°C° 0 mm 0 mps 739 mmHg 18%
    08:00 +21°C° 0 mm 0 mps 739 mmHg 18%
    09:00 +23°C° 0 mm 0 mps 739 mmHg 16%
    10:00 +26°C° 0 mm 1 mps 739 mmHg 14%
    11:00 +28°C° 0 mm 1 mps 739 mmHg 12%
    12:00 +29°C° 0 mm 1 mps 738 mmHg 12%
    13:00 +28°C° 0 mm 0 mps 738 mmHg 12%
    14:00 +29°C° 0 mm 0 mps 737 mmHg 12%
    15:00 +30°C° 0 mm 1 mps 737 mmHg 13%
    16:00 +28°C° 0 mm 1 mps 737 mmHg 15%
    17:00 +27°C° 0 mm 1 mps 737 mmHg 17%
    18:00 +26°C° 0 mm 1 mps 738 mmHg 16%
    19:00 +25°C° 0 mm 2 mps 738 mmHg 16%
    20:00 +24°C° 0 mm 2 mps 739 mmHg 16%
    21:00 +24°C° 0 mm 2 mps 739 mmHg 16%
    22:00 +23°C° 0 mm 1 mps 739 mmHg 16%
    23:00 +23°C° 0 mm 1 mps 738 mmHg 16%
    Show more